Theta_e
321 322 322 322 323 323 323 324 325 326 326 327 327 327 327 327 327 327 327 327 327 327 327 326 327 327 328 328 328 324 319 307 309 309 306 308 314 333 333 339 334 337 332 312 308 306 304 303 304 304 303 304 303 303 303 307 303 300 294 287 285 287 288 290 293 292 295 295 294 295 293 294 293 294 298 297 297 295 294 296 296 298 295 297 298 300 301 302
321 321 321 322 322 322 322 323 324 324 325 326 326 326 326 327 326 326 327 327 327 327 327 327 326 327 328 328 327 321 314 311 307 306 306 320 334 338 337 336 337 335 324 309 306 302 302 303 302 302 303 302 306 302 305 302 306 298 290 288 287 286 292 294 295 295 294 294 294 293 292 294 295 295 296 296 293 293 294 294 295 297 296 297 298 299 300 301
320 321 321 321 321 322 322 322 323 323 324 324 325 325 325 325 326 326 326 326 326 326 326 326 327 327 327 327 326 323 313 309 307 305 308 331 337 338 338 337 335 332 313 310 307 305 303 302 300 301 303 300 301 299 303 301 304 297 293 288 289 292 292 294 295 297 294 296 294 294 294 292 294 295 296 295 294 291 293 294 294 295 298 296 296 297 299 299
320 320 320 320 321 321 321 322 323 322 323 323 324 324 324 324 325 326 326 326 326 326 326 326 326 326 326 326 327 315 313 301 298 302 309 326 334 336 337 335 337 333 318 313 308 305 302 301 299 301 299 300 295 303 300 301 300 296 295 290 292 292 294 297 296 296 294 294 295 293 294 292 292 294 295 292 293 294 295 296 297 296 297 297 295 297 297 298
319 319 320 320 320 320 321 321 322 322 322 323 323 323 323 324 324 324 325 325 325 326 326 326 326 326 326 326 325 313 303 290 294 306 311 328 336 332 338 338 336 320 315 310 303 302 302 300 300 301 300 293 296 300 298 299 299 296 297 297 296 293 294 297 296 295 294 293 295 292 294 296 294 294 294 293 294 296 296 294 298 299 300 296 295 296 297 297
319 319 319 319 320 320 320 321 321 322 322 322 322 323 323 323 324 324 324 325 325 325 326 326 326 326 327 326 312 311 297 287 302 312 327 331 332 336 336 336 334 316 314 303 304 301 302 302 301 298 296 295 294 295 293 300 301 295 295 295 296 295 296 296 298 295 293 295 294 293 295 294 294 294 291 293 296 300 298 294 297 299 300 299 298 297 296 296
319 319 320 319 319 319 320 320 321 321 321 322 322 322 322 323 323 323 324 324 325 325 325 325 325 326 326 324 313 303 296 294 306 313 327 328 332 334 335 333 329 314 306 302 302 302 301 299 299 296 295 295 293 293 296 297 299 298 296 293 297 295 296 298 299 295 292 292 294 293 293 294 293 294 292 293 299 300 299 293 295 297 297 296 297 296 297 297
319 319 319 319 318 318 320 320 320 320 320 321 321 322 322 322 323 323 323 324 324 325 325 324 325 325 322 313 310 302 300 298 301 313 324 331 327 325 324 311 312 307 303 300 300 300 299 298 299 297 296 295 293 295 296 297 296 296 296 296 297 296 296 295 293 290 291 292 292 292 293 295 293 294 292 296 300 300 298 296 297 294 294 294 297 296 297 297
320 319 319 319 318 318 319 319 320 320 320 320 321 321 322 322 322 323 323 323 324 324 324 325 324 324 323 309 301 297 296 304 305 310 315 318 314 311 307 308 307 305 301 299 299 299 301 297 298 298 295 295 296 296 293 295 293 295 298 296 293 294 294 294 294 294 294 294 293 293 294 295 293 294 294 298 301 300 296 296 297 295 295 294 295 297 297 297
320 320 320 320 319 318 318 319 319 320 320 321 321 321 321 322 322 322 323 323 323 323 324 324 324 321 310 304 298 293 299 309 311 311 313 312 309 308 308 306 306 301 300 300 299 300 299 297 300 299 300 296 296 295 295 294 293 294 292 292 293 294 293 294 293 296 294 293 290 294 295 295 292 294 294 300 299 297 295 296 296 294 295 296 296 296 297 297
321 320 320 320 319 318 318 319 319 319 320 321 321 321 321 321 321 322 322 322 323 323 323 323 322 316 308 306 297 293 305 309 308 308 311 306 305 305 307 305 304 304 300 301 300 300 300 298 303 302 302 296 296 293 294 295 294 294 293 293 294 293 293 294 292 294 294 295 293 294 294 293 290 292 295 299 295 293 294 293 293 293 295 296 296 296 296 297
321 320 320 320 319 318 319 319 320 320 320 320 320 320 321 321 322 322 322 322 322 322 323 323 321 313 308 302 297 298 308 310 306 306 307 306 305 303 303 304 304 305 301 299 300 302 300 302 302 301 295 298 292 295 293 293 296 294 293 292 293 292 293 297 294 295 293 294 291 292 291 291 289 290 297 299 298 297 294 294 293 293 294 295 295 295 295 296
321 321 321 320 319 319 319 319 320 320 320 320 319 320 320 321 321 321 322 321 321 322 323 324 315 313 308 297 302 308 306 305 305 306 307 307 307 308 306 304 305 305 303 301 303 307 305 303 302 299 298 298 292 294 295 296 294 294 292 291 292 291 290 296 292 292 292 292 291 293 286 289 292 295 298 299 297 296 293 295 296 296 295 296 295 295 295 296
321 321 321 320 319 319 319 319 320 320 320 320 320 320 320 320 321 321 322 321 322 322 323 324 312 309 302 296 302 308 306 308 308 308 306 308 306 305 309 309 308 306 305 307 304 304 304 303 301 300 299 297 295 297 297 292 292 291 289 290 286 285 286 294 293 289 291 291 292 294 287 290 295 295 296 297 295 294 294 295 296 296 295 295 295 295 296 297
321 320 320 319 318 318 319 319 320 320 320 320 320 320 320 320 321 321 321 321 322 322 322 319 310 303 296 300 307 309 323 306 306 305 307 305 303 304 305 308 308 306 305 304 306 304 304 302 300 298 295 296 298 295 289 287 285 288 288 285 283 286 288 293 291 290 292 291 290 293 286 290 295 297 296 294 293 292 293 294 295 295 295 294 295 295 295 297
320 320 320 319 318 318 319 319 319 319 319 320 320 320 320 320 320 320 321 321 322 323 317 309 308 301 294 292 302 314 306 303 303 305 305 307 304 303 303 304 304 304 302 301 303 301 300 300 296 292 294 295 294 288 284 286 286 284 288 285 286 282 285 288 291 289 293 291 291 293 289 288 291 295 296 293 294 291 292 293 293 294 294 294 294 295 295 296
320 320 319 318 318 318 319 320 319 319 319 319 320 320 320 320 320 321 322 322 317 317 311 307 308 308 294 301 306 300 301 303 306 306 305 306 306 305 304 302 301 301 300 300 301 300 299 299 297 295 293 292 286 286 285 281 284 285 284 284 284 284 285 285 289 289 288 292 289 290 288 291 295 297 293 290 290 289 289 291 292 293 294 294 294 294 295 296
321 320 319 318 318 319 319 319 319 319 320 320 319 319 318 321 322 321 316 313 312 312 310 314 303 297 297 302 298 300 303 305 305 305 303 302 308 304 301 300 300 299 300 297 300 297 297 295 293 290 289 290 289 287 284 282 285 284 282 282 284 284 285 288 286 288 289 288 289 289 288 290 293 295 296 296 293 291 291 293 293 292 292 294 294 295 295 295
321 320 318 318 318 318 318 318 319 319 319 320 321 320 319 319 310 309 307 309 301 296 293 294 295 289 289 297 301 302 309 308 305 304 303 304 305 303 301 300 299 298 295 293 292 295 294 291 291 288 288 289 289 289 288 289 288 287 286 285 282 284 284 285 290 291 291 289 288 288 289 290 291 293 295 296 295 294 295 293 292 293 294 294 295 296 297 297
319 320 319 318 318 318 318 318 318 319 319 317 313 308 301 297 295 298 298 303 300 294 295 296 302 297 297 298 301 304 308 306 303 303 303 304 305 302 302 299 298 296 292 290 292 292 294 288 286 287 290 291 291 290 292 292 291 288 286 284 285 285 287 288 290 291 288 288 288 290 290 291 292 293 295 296 295 294 294 293 293 294 294 295 296 296 297 298
320 320 319 318 318 317 318 318 318 318 319 314 309 302 295 294 292 291 293 295 300 301 299 297 302 301 299 300 301 303 302 302 302 302 304 307 302 302 298 296 295 292 290 291 292 293 293 287 287 291 293 292 291 291 291 290 288 288 287 285 287 285 286 290 291 291 288 289 287 289 290 291 292 293 295 295 293 293 294 295 295 295 294 294 295 296 297 298
320 320 319 318 318 318 318 318 318 319 319 306 303 301 297 297 298 300 293 291 295 297 297 299 299 299 300 300 301 302 300 298 298 300 305 304 300 299 294 295 290 291 290 290 291 289 287 286 290 292 294 291 290 289 289 289 289 287 286 286 285 286 288 291 291 293 291 286 288 290 289 290 291 293 294 294 294 296 296 296 297 296 295 294 294 295 297 297
319 320 319 318 317 318 318 318 318 319 306 303 300 299 299 301 301 299 299 292 293 298 297 296 295 297 299 301 301 301 299 297 297 300 302 302 298 297 294 292 291 289 290 291 289 287 285 286 292 293 291 290 290 288 287 287 286 284 284 282 284 287 285 286 287 288 287 289 282 281 285 288 289 291 291 293 294 295 296 296 296 296 295 295 296 297 298 297
320 320 319 318 318 318 318 318 319 309 305 300 300 300 302 299 298 301 299 291 290 294 296 297 297 296 297 297 301 302 299 296 297 296 303 300 296 294 293 293 290 288 290 291 291 290 290 289 292 293 291 291 290 290 287 285 288 287 287 286 286 287 288 287 286 285 286 286 285 286 286 287 289 289 291 293 295 294 295 295 294 295 295 296 297 297 298 298
320 319 318 318 317 318 318 319 306 303 305 301 299 300 299 299 299 300 295 291 288 292 299 298 297 296 297 301 301 298 297 298 296 297 303 300 294 292 291 292 290 289 290 291 290 289 289 290 289 290 290 290 289 287 287 288 286 288 287 289 290 290 288 287 288 286 283 283 285 285 282 284 286 289 290 292 290 291 294 293 294 295 296 296 295 296 298 298
320 319 318 318 317 318 319 308 302 304 303 300 301 301 299 297 298 299 295 285 281 287 293 293 300 295 303 296 300 298 294 292 294 296 302 300 302 296 292 290 291 289 289 288 289 288 289 290 292 290 288 288 288 287 287 289 288 287 284 289 291 289 287 285 284 285 280 280 285 285 280 282 282 284 287 288 289 291 292 291 293 294 295 295 295 296 297 297
320 319 319 318 318 319 308 301 306 305 301 301 302 301 298 299 299 298 291 282 281 290 290 296 296 296 302 297 297 294 287 286 299 298 299 300 299 300 292 288 290 290 290 289 285 285 289 287 288 289 288 287 285 285 288 289 288 285 284 286 286 286 284 284 283 284 284 282 283 283 282 280 283 286 287 290 291 290 290 292 292 293 294 294 295 295 295 297
320 320 318 318 318 317 308 307 307 304 305 306 303 300 299 299 300 299 287 277 275 295 292 292 296 301 300 297 299 293 289 293 291 296 295 297 299 296 293 289 290 288 290 289 284 290 289 286 286 287 285 284 286 290 289 290 288 285 285 285 285 286 284 284 285 282 281 279 282 282 282 281 282 285 291 291 288 288 290 293 294 294 294 295 295 296 295 296
320 319 318 318 318 319 316 310 305 305 306 305 303 302 303 298 296 288 281 277 289 289 301 294 303 299 296 297 295 289 291 290 290 292 294 297 299 294 289 289 289 287 287 290 288 288 288 288 287 289 286 286 288 288 289 291 288 287 286 285 283 282 282 284 282 285 278 277 281 280 283 279 282 288 283 285 286 287 289 292 294 295 295 296 297 297 296 296
320 319 319 318 317 316 313 314 309 311 307 305 303 302 302 300 292 286 281 276 292 287 294 294 295 291 292 290 290 291 291 289 289 291 293 293 294 296 294 294 291 290 289 288 287 287 288 291 291 289 287 289 286 285 285 289 288 286 286 286 282 281 279 278 278 277 277 278 281 281 283 282 279 283 284 283 284 288 290 290 292 293 294 294 295 295 297 297
320 319 318 318 313 314 313 308 311 314 308 306 307 307 303 295 286 282 281 288 294 292 293 291 290 293 290 289 287 288 291 288 290 291 291 292 291 290 289 290 289 282 280 281 286 290 289 288 288 287 289 286 286 286 284 283 285 287 288 280 283 284 277 276 271 277 275 277 280 282 283 284 278 280 281 285 284 285 290 290 292 292 293 294 295 295 296 296
319 319 319 317 317 317 311 309 310 311 310 309 309 305 299 287 290 284 286 296 290 290 288 287 289 288 289 289 287 287 287 289 288 289 288 285 285 288 288 286 284 281 279 280 283 282 284 287 287 290 290 292 285 287 283 280 285 284 281 283 280 275 273 271 271 271 271 277 278 280 283 279 281 284 283 287 288 284 287 291 292 292 293 293 294 294 295 294
318 318 318 317 316 315 315 312 310 309 310 310 307 305 293 286 281 289 288 291 290 291 290 291 288 289 288 288 287 287 288 287 289 288 289 286 285 285 285 287 284 285 284 280 281 281 284 283 286 288 290 290 290 286 282 282 283 284 284 281 277 273 270 268 266 266 270 276 278 279 281 282 284 281 288 291 293 293 290 292 292 292 293 293 293 293 293 288
314 317 316 316 317 318 315 311 310 311 309 307 303 295 290 284 285 294 290 290 294 295 294 291 290 290 288 289 286 288 286 288 288 288 289 284 284 282 284 287 285 286 286 282 282 279 279 285 285 286 284 288 292 291 290 288 283 286 284 286 283 279 268 266 269 276 277 279 275 276 277 275 275 282 285 293 291 289 288 290 292 290 289 289 287 287 289 289
315 315 317 317 315 318 315 311 310 312 309 305 297 292 285 285 289 286 286 286 289 294 294 293 290 288 287 287 287 289 290 288 288 286 286 285 282 280 282 285 288 288 285 284 284 278 284 285 286 291 287 290 290 293 290 282 284 283 282 282 280 280 279 281 282 277 277 272 274 273 278 277 284 287 286 285 288 290 288 288 288 290 291 290 289 291 291 292
314 314 316 313 313 316 315 310 311 312 308 300 291 286 286 290 285 288 291 297 294 293 293 293 289 287 283 283 285 288 292 288 287 287 284 284 284 283 283 285 288 290 288 285 286 283 284 281 285 288 286 289 290 290 289 290 279 282 284 281 285 285 285 283 282 282 276 273 278 276 278 283 284 288 288 289 289 289 287 288 288 289 291 291 291 291 290 290
312 314 310 312 313 317 315 311 312 310 306 299 291 286 292 290 294 291 297 294 293 297 292 289 289 289 286 284 284 285 289 292 288 287 286 287 286 288 285 287 290 290 293 292 287 290 286 288 290 285 287 287 283 286 287 286 287 283 279 283 286 285 283 282 276 277 280 277 278 278 280 281 280 280 282 283 284 285 284 287 291 292 290 288 291 290 291 288
308 311 312 312 315 317 314 312 312 308 302 296 290 293 293 290 295 297 296 297 298 298 293 290 291 294 288 288 288 289 291 289 289 288 285 289 287 293 289 288 291 292 293 295 290 288 290 284 289 289 288 286 285 289 288 288 286 283 282 286 286 278 277 280 275 275 276 276 277 280 283 282 283 284 285 286 287 289 290 288 286 288 289 289 290 289 289 284
308 308 302 309 315 316 313 312 310 304 298 291 290 291 294 294 295 291 295 295 296 294 291 293 292 293 293 290 292 290 292 287 290 286 286 288 286 293 291 293 291 293 294 293 289 287 288 284 286 287 288 286 285 285 282 284 286 286 287 285 283 281 278 276 281 277 280 278 279 279 283 281 286 282 285 284 286 288 287 285 285 286 288 289 289 290 290 288
303 302 300 312 314 315 312 311 305 301 295 289 291 292 294 289 294 295 296 298 294 294 291 292 294 292 293 293 293 290 289 290 289 289 289 290 291 296 290 293 290 292 294 294 290 294 285 288 280 287 285 286 283 284 282 285 282 284 285 281 283 281 282 282 282 280 281 279 279 278 278 282 288 283 285 285 284 283 283 287 287 287 288 287 286 288 289 288
305 301 301 312 314 313 312 306 298 294 293 291 294 294 295 293 294 295 297 299 297 300 294 292 291 291 290 288 290 290 286 287 287 286 289 289 292 286 293 293 294 292 294 293 290 290 286 284 283 286 285 285 286 287 286 286 288 286 286 285 286 284 280 279 278 284 280 281 278 279 277 284 291 288 285 286 285 284 288 288 287 287 288 289 292 288 287 288
301 293 299 311 312 311 305 295 294 295 291 292 293 297 293 300 293 293 294 296 297 295 297 294 294 292 291 291 292 290 288 287 289 288 288 287 293 292 293 296 294 296 294 288 290 293 289 286 285 282 285 286 289 291 288 289 288 287 288 287 289 287 286 282 278 281 282 281 284 282 280 282 293 296 294 289 289 287 288 287 289 288 288 289 289 287 289 291
298 296 306 309 312 309 301 294 295 291 289 292 296 294 294 293 292 292 293 294 293 297 293 293 293 291 292 293 292 291 292 287 289 288 288 289 291 295 297 298 298 296 296 289 293 290 293 286 282 285 287 288 291 292 288 286 286 286 286 287 286 284 286 284 284 284 281 282 282 281 279 282 292 295 295 294 294 293 291 289 291 293 292 292 290 291 292 292
297 297 300 309 312 308 299 289 289 290 292 294 293 294 296 294 293 290 292 292 293 291 292 290 292 296 292 294 292 289 292 286 290 291 288 291 290 298 297 298 299 295 295 290 292 293 288 285 284 280 281 283 285 286 288 286 285 283 282 285 287 288 286 286 285 284 282 283 283 280 275 281 290 294 295 295 294 294 294 294 293 292 293 292 288 289 288 288
295 299 299 302 308 304 293 298 295 291 292 292 293 292 293 292 293 296 295 292 294 292 290 288 294 292 292 293 292 292 292 292 288 290 290 288 290 292 296 297 298 296 298 297 296 295 291 287 285 279 278 276 276 277 278 282 284 283 284 285 287 286 286 284 281 282 279 282 284 280 280 286 291 293 293 294 294 294 295 295 294 290 290 292 290 289 288 285
291 285 290 297 303 300 299 301 296 293 290 290 290 292 294 292 293 292 293 293 296 293 294 291 290 292 291 290 289 289 289 291 290 284 286 282 285 287 292 295 296 296 297 297 294 294 286 287 288 287 285 282 284 286 286 286 282 283 284 286 286 287 288 287 286 283 280 283 282 283 284 285 287 290 291 293 294 293 294 295 295 294 288 285 286 287 287 288
292 287 288 285 297 297 295 298 295 295 290 295 287 291 291 292 293 293 294 289 292 294 292 293 292 291 287 290 289 289 291 289 290 290 288 287 287 286 286 289 292 295 296 293 294 289 284 284 286 287 287 287 289 288 290 290 286 287 287 286 288 287 287 285 283 281 287 283 278 286 287 284 286 289 291 292 293 294 295 295 296 295 292 290 289 289 291 289
284 287 292 293 289 286 290 290 296 294 295 295 290 293 290 290 290 288 290 293 292 291 288 287 293 293 292 291 290 286 288 289 288 286 289 289 289 290 291 290 288 290 291 289 292 290 284 285 287 287 286 288 289 289 290 289 289 288 288 288 287 288 287 285 285 286 286 282 280 286 287 285 287 290 292 293 294 294 295 296 296 297 295 292 290 289 289 289
289 288 288 291 286 288 289 289 290 290 290 291 287 290 289 289 288 290 288 285 288 287 292 286 289 291 290 289 287 285 287 284 284 287 283 282 282 284 285 288 289 289 288 286 288 287 284 284 288 288 286 287 288 288 289 288 288 288 287 288 288 288 287 287 287 288 287 285 287 287 287 287 290 291 293 294 296 296 296 297 297 296 295 295 295 292 287 286
282 286 283 290 288 284 283 285 287 287 284 289 287 288 289 288 288 291 290 288 285 288 294 289 288 285 284 285 286 283 284 284 281 279 284 283 281 285 282 285 286 287 287 286 288 286 288 283 290 287 284 284 287 288 288 288 287 285 286 287 288 288 288 288 288 287 288 287 288 287 286 286 291 294 294 296 296 297 296 295 295 296 296 296 295 294 289 287
288 290 292 285 282 282 282 280 282 284 284 286 286 287 290 289 289 288 287 291 289 287 289 286 285 286 286 285 284 285 287 284 283 283 285 284 280 284 282 282 287 282 285 285 286 286 286 283 288 286 282 282 287 286 287 286 285 284 285 286 286 286 284 286 286 287 286 285 286 286 284 285 291 294 294 295 295 294 294 294 295 296 296 295 292 289 288 288
287 288 292 289 280 285 279 279 279 281 279 284 286 286 287 285 284 287 283 289 290 291 286 285 285 284 283 284 282 285 285 285 285 287 287 288 288 287 287 287 287 285 285 285 287 285 285 283 283 283 280 280 285 285 284 285 284 280 282 285 287 287 288 288 289 290 289 289 285 283 284 290 292 293 293 293 294 293 293 294 293 291 288 286 286 287 287 287
Wind_Speed
15 15 16 16 17 17 17 17 18 17 17 17 17 16 16 14 14 13 12 12 12 12 13 13 12 12 10 8 4 3 3 1 0 1 2 8 4 4 10 3 11 11 9 5 4 4 1 1 1 1 2 1 1 0 2 1 1 2 1 3 3 5 2 5 4 5 1 1 3 1 4 4 4 2 1 1 1 1 1 3 3 3 1 1 2 1 5 12
14 15 15 15 16 16 16 16 17 17 18 18 17 17 17 16 15 14 13 13 12 12 13 13 14 12 10 9 5 2 1 1 2 3 14 0 0 5 7 8 10 12 9 4 7 4 5 1 2 2 3 0 1 1 1 1 1 3 1 2 7 5 7 5 4 3 1 4 3 3 2 5 8 1 1 1 3 2 5 5 1 4 3 4 4 4 10 12
13 14 14 15 15 15 15 16 16 16 17 17 17 17 17 17 16 15 15 13 13 13 12 13 14 13 11 10 8 2 0 0 1 4 5 3 3 4 5 7 10 11 7 3 5 8 6 5 4 3 0 1 1 2 1 1 2 4 4 5 7 8 6 5 3 6 4 3 4 3 2 5 4 2 0 2 8 3 8 7 1 5 11 6 4 4 8 10
13 13 14 14 15 15 15 15 15 16 16 16 16 16 16 16 16 16 15 15 15 15 14 14 14 13 10 10 9 3 0 1 1 2 2 5 4 4 5 7 7 7 0 1 6 5 3 4 5 5 1 1 2 0 1 4 2 2 2 5 6 4 3 7 7 8 6 3 2 3 0 1 5 5 2 2 4 11 12 9 9 11 14 9 9 8 9 10
13 14 14 14 15 15 15 15 15 15 15 16 15 16 16 16 16 16 16 15 15 15 15 15 16 13 10 9 10 0 1 3 2 1 2 2 4 5 3 4 5 3 1 1 4 3 4 4 3 1 1 3 1 0 4 3 3 4 9 6 7 1 1 9 6 7 3 3 2 2 2 7 0 1 4 4 10 15 7 5 12 12 12 7 12 12 9 12
10 12 13 14 14 15 15 16 15 15 15 16 15 15 16 16 16 15 16 15 15 15 15 15 15 14 11 9 4 0 0 2 1 1 5 4 4 3 4 3 4 2 0 3 3 2 4 1 3 1 1 1 4 6 3 3 3 5 4 6 6 6 6 3 2 2 2 1 2 4 5 0 1 4 3 6 16 19 3 4 10 12 13 10 10 13 11 13
9 10 14 14 14 15 16 16 15 15 15 15 15 15 16 15 16 16 16 15 14 14 15 15 14 14 13 7 1 2 2 6 1 5 8 6 5 5 3 4 6 3 2 3 1 3 2 2 2 3 1 0 4 4 6 1 3 5 9 1 7 5 11 10 7 5 3 5 7 4 2 3 2 9 1 6 20 17 10 3 7 9 6 6 11 15 19 19
9 10 12 13 14 15 16 17 16 16 16 15 16 15 16 15 15 15 15 15 15 15 14 14 13 12 9 2 1 2 2 5 7 2 7 6 5 4 7 3 5 4 4 7 6 3 3 4 5 2 1 5 3 4 1 0 2 5 8 4 6 4 7 6 6 5 4 6 5 3 5 10 6 6 4 17 23 16 8 5 8 4 3 6 10 15 15 15
6 9 12 11 14 15 16 17 17 16 16 16 16 16 16 16 16 15 14 14 15 15 14 13 13 11 2 1 2 3 5 5 5 6 5 6 6 5 7 3 4 6 3 3 4 5 5 5 2 5 6 1 2 3 2 2 9 7 11 2 4 4 6 6 7 8 8 6 3 3 12 10 6 3 9 25 27 14 5 7 10 6 6 8 11 14 15 16
6 11 13 12 14 15 17 16 17 17 17 17 17 17 17 17 17 16 15 14 14 13 13 11 10 9 3 1 2 1 6 3 1 5 6 6 5 5 2 2 7 5 3 3 4 4 6 5 6 4 2 2 2 4 1 4 6 3 3 4 6 7 7 6 5 8 2 4 4 6 13 13 1 4 13 17 11 2 5 9 7 7 10 12 10 10 13 15
8 11 12 12 14 16 17 16 16 17 17 17 17 18 18 17 17 16 15 15 13 13 11 9 8 5 0 1 3 8 4 4 1 4 7 7 7 6 6 4 5 5 5 1 5 6 4 4 3 3 1 5 2 4 2 4 1 1 1 6 8 5 6 11 5 12 1 7 8 9 12 8 1 2 15 22 1 4 3 4 6 6 10 11 11 11 10 12
8 12 12 12 13 16 15 16 16 16 17 17 18 18 18 17 17 16 15 14 14 12 10 10 3 2 1 1 7 8 2 2 1 3 5 6 4 7 6 5 5 5 7 5 4 3 4 3 6 3 4 1 2 1 3 2 0 1 3 7 11 6 10 17 7 7 5 7 4 7 2 8 3 9 22 20 9 3 5 8 8 8 9 10 9 9 8 14
6 11 11 10 14 15 17 17 17 17 17 18 18 18 19 18 17 16 15 13 10 12 10 2 5 1 2 3 10 6 2 2 1 5 1 1 1 0 0 0 2 2 4 4 1 1 3 5 4 2 3 1 1 2 1 1 1 1 1 1 11 8 8 18 3 2 4 4 6 6 6 9 11 19 19 17 8 1 5 11 12 10 11 11 9 9 11 11
9 8 8 11 13 15 17 18 18 17 17 18 19 20 20 20 18 16 15 14 12 11 7 2 3 3 1 7 5 3 3 0 4 2 4 1 2 2 1 2 2 1 1 1 0 3 2 1 4 2 1 3 4 3 3 4 2 4 3 2 6 7 10 6 3 2 2 3 9 4 5 11 15 13 13 15 6 5 9 12 13 12 11 10 10 10 11 13
11 8 6 11 15 14 16 18 18 17 17 18 19 20 20 21 20 16 14 12 9 6 3 3 1 4 1 8 2 5 3 2 3 5 5 6 4 1 2 1 0 1 0 2 1 1 3 4 4 1 3 0 1 4 6 2 2 1 2 7 2 7 10 16 4 5 6 1 5 5 7 13 18 20 7 4 1 6 9 13 13 12 11 11 9 10 11 14
9 7 7 11 14 15 15 16 16 18 18 19 20 20 22 20 18 16 12 9 10 5 2 1 1 2 2 6 2 1 1 3 6 5 4 5 6 5 2 3 1 3 3 1 2 2 3 3 1 4 1 1 3 2 2 5 5 3 7 7 9 4 7 10 8 3 10 3 1 10 10 5 12 17 11 4 6 6 9 11 12 13 13 12 10 10 11 12
7 6 9 12 14 15 15 15 16 19 20 21 24 25 20 17 15 13 9 3 1 2 3 1 1 1 2 2 2 1 6 6 2 1 3 2 5 4 5 3 1 2 4 4 3 4 2 1 0 2 2 5 3 5 1 3 9 8 2 8 5 6 2 5 10 5 4 8 5 8 7 13 16 16 8 2 3 4 6 11 12 12 10 10 9 10 12 12
8 8 11 13 14 14 14 16 19 20 20 21 23 20 19 18 12 3 6 4 1 4 0 0 2 1 9 1 6 7 0 2 1 3 4 0 4 5 4 2 2 4 3 2 2 2 1 2 1 7 1 4 3 4 7 11 12 9 4 5 7 4 6 11 2 3 2 4 7 6 13 16 16 16 15 11 5 6 9 11 11 9 8 10 9 11 13 13
9 9 11 13 14 12 15 17 19 19 19 24 24 18 8 3 3 2 5 0 3 1 1 2 4 5 6 7 4 4 1 3 2 5 3 4 0 3 3 3 5 6 2 2 2 4 1 3 4 2 8 9 11 11 13 18 9 12 10 8 3 6 7 6 12 8 4 6 8 10 13 16 18 20 20 15 12 12 16 10 11 13 13 13 13 14 14 14
11 9 12 14 12 13 14 16 18 20 23 15 10 6 2 3 2 1 6 2 4 6 1 4 9 2 5 3 2 1 0 1 3 3 2 1 7 3 1 2 2 3 6 5 1 5 3 7 8 10 15 15 8 11 18 18 11 6 1 4 10 10 10 7 15 9 3 3 10 15 17 18 17 17 20 16 11 12 15 14 15 13 13 14 14 16 18 18
9 8 11 12 12 14 14 17 18 19 20 9 8 3 3 0 1 4 4 9 9 8 7 4 13 10 7 1 1 3 3 3 0 1 4 3 3 9 4 3 2 3 4 5 7 1 3 8 10 16 17 11 13 12 11 10 5 8 8 7 14 6 14 16 14 9 4 7 6 10 17 19 18 16 17 13 9 17 17 17 18 18 14 13 16 19 18 20
8 8 9 13 13 14 15 15 17 18 14 3 4 4 1 0 0 1 1 6 5 9 9 14 4 7 6 8 4 4 3 1 2 4 2 5 5 9 3 6 5 11 3 3 2 1 6 11 15 20 12 5 1 4 7 10 10 7 8 8 9 10 13 16 11 15 9 3 14 12 17 18 16 17 17 14 16 17 15 16 20 17 13 12 15 18 19 17
7 6 11 12 13 14 14 15 15 14 4 5 3 2 0 1 0 1 0 1 8 4 4 7 6 12 13 9 4 3 6 11 12 4 7 5 3 6 4 6 8 2 4 6 11 6 7 7 19 13 6 5 5 4 4 3 4 5 7 5 12 8 2 14 4 7 0 8 4 4 12 13 10 11 15 14 16 17 16 17 17 15 14 16 18 18 17 18
8 7 11 11 12 13 15 14 14 4 4 1 3 1 1 2 2 2 0 3 5 7 9 7 6 4 11 8 5 10 13 4 4 6 2 7 9 3 3 8 4 4 10 13 17 15 18 6 8 9 6 9 12 9 4 5 13 7 12 8 11 11 15 13 8 4 5 5 4 11 16 16 12 17 14 15 18 16 16 16 15 16 13 16 15 14 16 20
9 8 8 10 11 12 14 14 3 1 0 2 0 2 3 3 3 3 1 5 2 6 3 2 6 4 5 4 3 6 4 3 6 0 5 9 6 3 4 2 3 11 10 12 10 11 14 5 3 5 7 9 9 7 8 8 14 12 8 13 20 17 13 10 12 9 5 7 4 4 10 14 9 17 17 11 7 8 12 13 17 20 17 14 17 21 22 18
10 8 8 8 9 10 13 5 1 2 1 1 1 2 4 3 2 1 0 2 7 4 3 4 2 3 2 2 3 6 4 4 2 4 7 5 2 4 2 2 4 11 7 5 10 6 6 5 8 7 8 9 9 8 7 10 15 13 5 17 18 13 9 8 9 2 7 6 3 2 3 21 6 4 6 7 9 13 9 9 15 16 15 12 16 19 19 17
11 9 8 8 7 7 3 1 1 1 1 1 2 3 3 3 3 1 2 3 4 4 4 1 1 1 1 0 4 4 2 6 1 5 2 4 7 0 5 5 0 1 3 2 2 7 3 4 8 7 7 7 6 6 10 16 10 10 2 8 7 6 6 5 4 7 9 1 4 3 5 9 24 8 7 13 15 12 12 14 16 16 15 14 16 17 17 18
11 10 9 9 7 5 2 1 4 2 3 1 3 3 3 3 4 1 1 5 4 1 1 1 1 1 1 1 2 5 1 0 1 1 1 3 2 2 5 7 10 5 2 5 13 1 7 3 7 7 5 5 9 18 5 12 8 5 1 7 5 5 4 3 3 4 3 5 12 7 3 4 14 6 15 15 11 10 13 17 19 16 15 16 16 17 17 17
11 11 10 10 8 7 1 1 2 3 2 2 2 3 3 4 1 3 2 3 2 1 3 1 3 0 1 2 3 2 0 3 0 1 3 1 3 2 3 4 1 1 2 8 14 4 2 2 6 9 9 10 10 2 8 13 10 5 6 5 5 4 4 2 1 0 4 3 17 7 4 4 20 15 5 0 5 9 13 18 19 16 15 16 16 15 13 12
12 11 11 11 5 4 2 1 6 3 2 3 3 2 2 1 1 1 1 8 1 3 1 1 0 1 1 4 2 2 2 2 2 1 2 2 2 1 0 0 3 3 6 3 6 8 4 2 4 5 8 6 4 1 2 8 6 4 4 3 4 6 3 4 6 3 4 9 12 12 10 7 12 6 9 9 7 12 12 6 8 9 10 12 14 13 13 13
12 12 11 13 5 3 4 3 7 5 2 4 2 1 1 1 2 3 11 4 3 2 1 1 1 2 3 3 2 2 0 0 0 1 1 1 1 3 2 1 3 2 1 3 9 12 4 0 2 5 4 4 3 2 2 2 1 3 1 2 4 5 6 3 4 3 3 13 4 11 14 11 10 5 4 4 3 2 7 10 14 13 14 14 13 12 13 14
12 12 12 11 5 6 6 3 2 4 4 3 2 5 4 1 2 9 8 3 1 2 2 1 0 1 1 1 2 1 4 1 2 4 7 4 4 5 7 8 4 2 4 5 9 3 5 12 6 1 5 11 3 2 2 3 2 4 4 2 2 6 6 3 2 1 6 13 2 4 8 2 22 8 3 8 8 4 8 10 12 13 13 12 12 13 14 8
9 12 13 12 8 4 4 1 2 6 6 3 5 2 2 3 8 10 6 2 3 2 2 3 2 3 1 3 3 4 0 4 1 1 3 0 4 4 3 4 4 4 9 2 3 4 9 1 3 5 1 6 9 9 1 2 5 7 7 6 6 5 4 5 5 3 6 7 6 5 3 12 8 4 10 13 16 13 10 12 12 11 12 12 11 10 10 6
9 8 8 7 10 10 4 7 5 8 7 4 6 5 5 1 9 3 3 6 7 1 4 1 1 1 3 7 4 4 2 4 5 3 4 1 2 3 4 5 4 4 1 1 4 2 7 12 6 7 5 4 12 13 16 9 9 13 3 13 12 10 6 3 5 10 9 10 3 3 5 9 1 6 6 14 5 4 4 8 11 7 7 8 7 8 13 12
9 5 6 4 8 9 6 7 8 6 7 5 3 4 6 13 2 2 2 2 3 3 7 1 1 1 5 1 2 3 5 4 3 3 4 5 5 5 6 6 8 3 2 1 4 3 10 12 7 8 1 8 11 12 4 6 3 3 3 3 1 9 6 8 8 6 6 2 4 3 8 3 6 1 4 4 7 9 4 4 5 8 10 8 9 11 11 13
5 2 3 3 4 6 8 7 7 6 7 6 4 3 13 9 4 2 3 3 1 1 4 8 1 1 5 2 2 4 3 5 1 3 2 5 3 5 4 4 8 17 9 9 5 5 1 7 1 0 3 8 10 5 6 9 4 4 7 7 12 3 8 6 4 2 2 1 15 3 7 10 7 13 8 11 9 11 4 6 5 7 11 13 11 11 11 10
3 1 3 3 4 6 10 10 9 8 7 7 4 10 10 3 5 3 3 2 1 1 2 1 3 3 1 3 1 1 2 0 3 3 5 2 5 7 3 6 4 9 15 11 5 5 9 12 1 4 6 5 2 2 2 2 3 9 3 8 2 2 3 3 5 2 4 11 10 3 15 10 3 15 3 2 3 5 5 8 11 11 7 7 10 10 12 8
5 3 5 6 7 8 11 11 10 7 6 7 11 16 3 4 2 5 0 1 1 0 0 2 5 4 3 2 2 2 3 2 2 2 3 3 5 4 3 2 4 8 14 11 5 4 3 11 9 8 6 2 3 0 4 0 1 3 5 2 6 3 4 3 4 6 8 11 7 9 18 15 10 15 2 8 9 9 10 7 3 6 8 9 10 12 11 6
3 3 5 5 6 12 11 13 10 10 5 7 10 13 3 5 2 3 4 3 1 2 3 5 5 2 3 5 5 1 0 3 1 1 3 3 2 1 1 1 4 4 4 3 3 3 1 5 2 5 2 3 1 2 8 4 1 0 0 1 1 1 3 6 8 3 4 14 9 13 12 17 5 3 2 8 8 9 8 6 7 5 7 7 7 9 11 9
2 2 6 0 3 11 12 12 8 8 6 13 11 10 2 2 3 3 3 5 3 3 5 4 6 7 3 7 3 6 2 3 3 5 4 4 6 5 2 6 2 2 5 1 3 1 4 1 8 2 3 1 2 4 5 8 8 3 3 3 2 1 3 2 3 4 7 10 10 10 12 8 10 4 4 5 7 4 2 4 6 7 7 6 6 8 10 9
2 3 3 2 6 11 12 8 6 10 8 2 5 6 3 4 2 2 5 7 3 1 4 3 6 8 4 0 5 4 2 2 4 5 5 4 4 5 2 3 2 2 1 2 2 2 2 2 9 5 7 8 7 2 7 4 6 7 10 11 12 8 4 7 12 3 3 7 9 10 13 4 10 1 4 1 1 1 1 1 5 6 7 9 12 9 7 9
4 6 3 5 9 13 12 9 5 3 2 9 10 5 4 4 2 4 2 3 7 3 1 3 5 4 3 6 6 3 3 5 7 6 4 10 5 9 4 4 4 3 3 1 2 2 2 2 4 7 9 10 9 8 3 8 4 3 4 7 8 8 7 8 15 7 2 4 3 6 9 9 4 20 14 6 7 4 6 6 8 7 8 8 9 8 10 13
5 6 2 8 11 15 9 7 7 3 4 4 3 3 1 1 3 4 4 3 3 4 2 4 7 5 6 7 5 8 8 8 9 9 6 8 11 15 12 15 13 5 1 3 1 4 6 1 1 7 5 7 13 11 4 3 3 3 4 4 2 7 9 10 9 3 6 2 6 6 11 5 5 14 20 16 14 14 8 7 12 14 12 12 11 11 15 15
3 3 1 3 11 8 9 10 8 11 8 4 3 3 1 3 4 3 5 5 6 3 6 4 3 11 8 7 6 7 8 8 9 16 7 8 8 13 18 17 16 10 5 7 8 7 2 3 4 3 4 6 6 5 8 1 2 4 4 5 6 5 3 4 2 2 9 10 13 13 18 10 11 12 18 21 22 22 21 19 14 13 15 13 10 12 12 12
4 3 4 2 7 6 9 6 10 6 8 10 9 10 6 3 5 13 9 5 4 5 2 3 6 4 6 7 9 9 8 16 8 7 10 6 8 3 12 13 15 13 12 6 9 5 10 7 7 9 11 13 11 8 7 8 8 2 2 4 4 6 11 8 10 5 12 7 14 13 13 12 16 15 18 23 27 27 26 21 13 8 11 16 12 12 12 10
2 4 3 3 5 6 6 6 3 5 4 9 9 9 9 11 3 4 7 7 8 3 5 2 3 1 7 4 7 7 10 6 12 2 5 2 3 3 7 11 13 12 14 13 6 6 3 4 12 14 15 16 15 13 3 3 2 6 7 10 11 12 14 14 12 13 15 16 17 16 18 21 19 16 19 26 25 25 27 26 16 10 9 11 11 11 10 10
4 2 2 2 2 9 9 5 7 6 6 4 7 3 13 12 8 4 10 4 6 10 5 9 7 7 3 9 10 12 11 10 11 14 11 9 5 4 4 6 5 11 13 6 7 2 1 5 11 17 19 16 16 17 18 15 19 16 19 19 18 17 13 15 15 19 15 15 21 12 19 19 20 19 23 26 26 25 26 25 21 13 9 8 9 11 13 12
3 4 1 3 3 4 9 10 8 8 7 8 8 4 9 9 7 7 1 4 3 3 4 2 12 14 15 14 9 10 6 14 10 12 11 10 9 7 13 4 4 3 2 1 8 8 5 9 9 13 18 16 19 21 22 21 19 18 19 20 22 22 20 20 22 21 19 17 22 17 17 19 19 19 23 25 25 26 24 23 23 21 15 11 10 9 10 11
1 2 3 3 1 4 2 3 5 4 3 4 1 4 11 15 15 8 4 2 1 3 9 9 8 12 7 4 5 6 7 9 6 3 3 7 7 6 4 6 5 1 3 2 4 4 3 10 11 15 19 16 19 18 21 22 21 20 20 21 21 21 22 23 24 23 25 26 25 25 25 29 22 18 19 24 25 21 19 19 20 22 23 21 17 12 7 7
3 1 3 2 1 5 2 1 1 3 3 5 5 8 5 6 10 4 0 4 3 4 2 10 3 6 1 0 2 2 3 2 4 5 3 8 10 1 5 4 6 7 7 3 2 1 8 3 11 13 15 18 20 20 20 21 22 23 22 21 22 22 24 26 24 22 22 26 25 30 30 28 17 18 21 22 21 20 21 21 23 25 26 27 22 13 6 6
2 1 2 5 5 3 0 0 2 4 4 4 8 4 4 4 6 2 2 2 1 3 1 2 7 7 5 4 1 3 3 1 3 5 7 5 7 4 3 5 6 11 14 6 2 3 4 6 6 10 14 15 12 18 19 17 19 23 25 23 21 23 25 22 20 21 22 27 25 23 20 18 17 22 23 22 23 23 24 25 24 22 21 18 14 13 13 13
1 3 1 2 6 4 2 3 1 2 9 7 4 2 1 3 1 3 4 4 3 2 5 4 5 5 3 4 6 1 1 4 7 7 7 8 10 11 10 11 9 8 5 10 5 8 2 4 5 5 14 11 9 13 15 17 18 20 20 23 29 30 25 22 24 23 20 19 21 18 19 18 20 16 20 19 19 18 18 18 18 14 12 12 12 12 11 11
Wind_Direction
20 19 16 14 13 11 8 5 3 1 359 358 358 356 356 355 354 351 348 346 342 343 340 337 339 333 328 316 325 356 347 127 94 147 172 237 219 226 178 117 154 147 146 115 100 111 43 34 181 330 47 51 259 122 247 96 129 61 189 126 264 204 174 219 201 192 204 223 280 275 222 183 284 304 259 32 304 224 272 230 283 287 58 327 303 60 127 137
19 16 14 13 12 9 6 4 3 0 358 356 355 354 352 350 349 347 345 344 343 340 339 338 336 335 329 321 319 344 92 118 214 212 227 84 275 173 176 161 147 148 134 115 146 146 124 253 230 100 115 207 302 184 105 240 107 151 129 122 232 191 238 161 206 232 139 275 237 243 280 185 235 149 286 221 276 273 267 255 231 254 279 35 48 103 135 145
17 13 12 10 10 7 5 3 360 358 357 354 353 351 349 346 345 345 343 342 341 340 339 335 334 334 330 319 309 231 190 360 337 262 261 50 141 167 166 159 161 161 159 161 200 152 157 191 171 110 55 146 304 196 66 245 139 234 130 234 244 212 240 223 222 264 204 241 263 273 273 165 249 173 32 216 260 298 241 237 256 228 244 210 147 153 153 160
14 11 9 8 6 5 2 359 357 354 353 352 348 348 346 344 342 342 342 340 339 339 338 338 335 335 327 320 312 304 21 25 283 246 266 247 180 161 172 167 172 181 61 282 162 153 129 97 117 134 96 188 287 75 148 242 127 265 128 206 231 217 215 264 237 241 243 178 245 208 359 278 269 219 155 223 325 261 245 222 200 220 231 210 175 173 170 170
11 9 6 3 2 1 356 355 354 350 348 347 346 342 342 340 338 337 339 339 337 338 340 337 338 334 326 321 318 136 10 48 273 231 247 206 198 180 177 187 176 148 174 119 92 73 115 133 111 73 98 220 336 35 248 234 202 115 212 220 220 103 211 254 241 247 211 212 245 243 292 255 76 69 220 184 237 265 245 213 207 227 232 178 177 188 175 181
9 8 5 2 359 356 353 350 350 346 342 342 341 339 337 334 335 332 333 336 336 335 338 340 336 335 325 326 345 238 66 344 220 262 164 187 175 201 182 169 127 112 90 116 162 143 118 34 118 144 234 120 198 174 264 190 145 251 267 255 237 227 245 257 249 232 183 259 230 286 243 7 256 267 231 198 228 254 211 189 196 216 228 202 168 160 183 189
359 2 4 359 355 351 348 347 342 340 338 335 336 334 332 331 328 329 329 331 333 333 337 337 335 337 333 319 290 83 137 256 333 235 161 171 189 172 169 113 114 112 149 147 164 165 183 102 131 211 121 318 283 200 253 185 206 214 255 190 272 208 232 256 267 297 278 250 252 224 11 257 275 287 225 229 250 247 251 180 204 218 232 121 149 179 185 192
357 356 356 357 350 347 344 341 338 335 333 332 330 330 326 324 325 323 326 327 330 331 334 336 338 334 359 32 21 360 35 253 244 187 177 171 154 144 123 102 131 136 150 191 169 193 128 153 183 143 194 187 227 161 254 319 134 205 264 230 264 236 243 260 260 285 265 255 260 319 285 252 203 242 1 269 268 255 250 220 236 218 163 168 176 188 198 201
354 348 346 350 346 341 339 336 334 333 332 328 327 324 322 320 320 320 320 323 326 326 331 335 340 342 301 84 114 348 268 237 221 180 161 164 165 116 137 146 165 153 179 162 207 183 145 242 206 181 253 235 226 228 269 216 286 210 234 246 284 272 287 277 293 268 261 272 181 285 262 263 235 282 273 260 268 275 222 220 231 212 222 201 203 199 196 204
347 342 337 340 339 336 333 332 330 329 328 327 323 320 318 317 316 317 316 319 319 323 323 331 345 331 43 87 44 281 260 240 76 143 164 143 127 125 185 186 153 156 145 212 120 138 176 215 182 207 145 226 166 215 180 157 239 178 226 236 260 272 300 278 228 271 238 248 154 222 271 272 264 145 273 271 257 253 197 224 237 208 224 228 221 213 208 205
333 332 328 331 333 329 328 323 323 326 324 322 319 317 314 313 311 310 313 314 317 312 319 322 339 14 37 120 173 235 229 103 166 150 151 138 128 157 209 184 179 161 180 170 191 187 199 154 174 91 19 224 132 279 163 228 159 302 262 313 290 291 265 262 248 265 310 284 195 207 253 279 317 140 245 259 331 83 165 253 260 238 238 240 233 223 216 216
320 320 317 325 325 323 319 318 318 319 320 318 316 312 310 307 306 305 308 310 309 308 312 317 306 127 90 117 211 221 313 266 149 156 151 145 166 212 214 185 171 175 165 207 231 231 171 172 127 153 212 40 273 318 260 243 31 285 22 325 293 327 324 278 262 264 144 256 161 166 258 288 169 221 241 246 260 319 299 279 261 248 250 250 243 235 225 222
301 302 298 317 319 316 313 311 311 313 315 315 312 311 308 306 302 303 304 308 303 300 308 334 108 150 103 295 232 241 319 294 141 122 119 149 137 79 90 140 168 155 169 175 226 203 189 142 140 150 223 144 189 233 179 53 294 345 47 198 309 318 310 283 126 283 156 251 143 131 277 258 240 233 246 258 265 300 291 275 269 258 251 252 249 236 237 237
292 295 302 315 312 307 308 306 306 308 311 308 310 310 308 304 301 300 301 300 297 294 306 156 129 104 114 245 264 251 278 100 105 113 204 148 172 271 355 62 74 66 27 148 154 157 105 118 132 185 124 184 258 307 342 348 11 257 248 87 241 322 270 267 58 125 168 205 171 149 224 269 273 253 246 258 262 233 256 264 267 265 261 254 250 248 244 242
283 271 276 314 312 307 305 305 304 305 304 305 304 304 302 299 299 299 297 293 278 283 305 102 71 92 130 266 246 295 259 104 192 224 180 150 165 313 252 337 74 13 173 130 133 143 141 101 86 98 254 277 357 313 295 17 353 283 6 253 317 202 267 292 304 178 236 289 205 113 254 248 262 270 254 243 158 181 231 251 261 265 266 260 256 252 252 251
281 277 295 311 309 305 303 302 302 305 307 305 304 300 300 295 295 295 287 273 270 260 198 149 223 121 88 290 256 42 60 201 252 207 231 152 167 198 200 139 88 61 87 15 87 94 35 109 149 192 256 354 225 139 22 9 315 334 199 260 256 172 261 341 291 206 226 148 271 177 230 270 284 266 268 274 224 195 225 254 258 261 263 267 260 255 254 263
288 279 312 310 308 306 302 305 308 311 311 311 309 304 293 289 290 289 286 241 120 134 133 147 123 223 196 245 116 245 229 230 223 59 139 172 157 157 113 85 129 92 53 55 37 77 345 109 291 42 28 212 157 100 50 299 272 263 173 223 216 228 231 246 297 279 196 167 210 238 242 238 250 271 262 242 161 172 221 249 257 260 263 262 267 265 258 254
278 291 305 303 303 304 311 316 316 316 316 314 311 304 300 296 287 101 77 63 86 120 212 202 132 81 275 22 261 239 163 165 176 187 103 243 138 136 118 125 71 100 91 47 347 124 286 137 48 200 344 249 127 134 163 236 215 236 185 243 277 255 218 245 273 270 101 242 220 227 235 248 254 266 272 263 243 239 243 248 255 261 267 269 263 263 261 255
284 292 298 300 301 309 318 317 319 320 320 319 308 306 305 64 66 112 88 55 105 25 10 225 131 179 228 228 258 23 182 229 105 121 205 127 98 116 76 83 114 125 150 108 271 132 2 57 25 82 233 229 218 185 198 231 229 238 224 241 211 244 238 216 240 254 217 245 234 230 236 244 249 260 265 267 261 259 261 257 265 263 262 264 262 263 265 261
278 280 299 301 304 311 317 318 320 324 327 325 336 355 3 14 8 360 346 6 237 187 193 208 210 301 337 300 185 268 346 35 116 250 111 270 115 129 96 103 46 61 117 184 190 219 141 156 166 197 225 223 221 196 218 230 236 270 309 235 246 248 268 268 266 262 189 275 236 241 244 251 251 248 257 259 267 266 266 265 258 253 254 256 259 256 256 260
260 271 295 300 304 310 314 319 322 325 327 328 320 37 70 218 333 295 318 256 250 278 273 241 206 218 231 112 220 145 155 251 109 212 199 133 113 123 223 110 129 185 218 172 156 262 112 184 212 218 224 216 217 212 228 253 262 245 255 267 266 246 272 249 263 271 211 205 258 237 253 254 252 253 257 265 266 263 260 263 261 256 243 249 254 259 257 254
255 270 294 297 302 307 310 316 320 323 326 345 34 67 130 225 199 257 107 307 313 249 243 251 246 272 278 243 216 177 74 277 249 236 264 151 182 165 249 155 159 208 128 134 345 156 196 203 220 227 226 233 253 200 221 222 238 241 235 251 281 260 257 275 261 265 258 165 264 260 263 258 253 252 255 255 253 255 253 248 256 258 253 242 247 254 260 265
248 270 290 295 298 303 308 314 317 326 7 20 33 52 68 243 33 303 79 182 267 255 222 247 234 229 250 255 235 129 230 225 242 159 191 158 101 225 140 150 206 119 146 168 203 198 252 245 236 232 216 235 259 222 220 283 254 214 242 256 244 254 274 285 193 259 238 187 263 241 267 266 267 265 260 255 254 252 251 253 256 254 251 247 243 245 254 260
242 257 281 289 296 300 307 312 315 1 17 121 106 144 233 134 123 140 81 238 274 301 220 225 200 194 220 214 204 175 209 250 204 239 189 155 159 181 142 188 161 138 203 202 213 217 228 222 223 223 189 198 230 231 224 255 263 196 217 229 257 250 238 235 272 333 280 280 262 288 277 270 247 257 256 250 244 254 260 260 259 259 243 248 257 262 253 255
234 237 260 277 288 300 302 312 347 287 269 77 270 241 188 171 141 192 12 306 317 274 286 302 176 242 235 42 106 159 239 264 214 140 173 154 147 76 229 164 122 225 213 214 241 255 259 249 124 158 194 207 216 235 217 215 262 249 197 210 235 243 262 258 279 328 321 303 251 239 313 276 198 216 236 240 265 245 248 249 254 253 251 245 254 254 254 251
225 222 241 257 276 295 303 312 271 256 57 146 210 212 187 154 170 116 76 9 289 264 353 235 133 267 85 198 120 169 60 252 242 206 157 212 136 166 90 205 162 246 195 216 228 233 235 210 187 187 186 204 202 214 222 182 240 268 246 206 233 244 240 261 277 358 280 257 318 103 200 291 134 226 222 246 244 244 255 241 247 252 251 241 242 250 256 252
221 215 222 245 260 283 347 259 254 8 34 309 237 201 171 140 145 87 7 310 311 214 171 264 55 245 69 270 142 115 138 259 32 31 57 351 184 302 194 213 288 270 149 165 7 267 182 230 197 207 191 179 184 232 233 187 227 262 217 182 212 233 235 225 203 192 258 286 249 148 153 257 291 239 208 214 228 232 245 252 250 247 248 243 240 244 250 257
220 210 209 224 235 223 193 281 4 351 226 196 171 156 136 132 105 123 82 324 285 183 108 248 224 343 74 326 295 176 197 335 70 259 275 291 101 323 192 206 200 174 175 105 240 220 165 195 199 206 193 172 203 218 203 159 185 225 201 142 170 193 203 150 164 198 235 11 299 166 97 285 265 258 192 193 227 235 236 242 248 247 245 247 247 244 245 252
225 214 201 205 219 226 167 187 150 238 238 200 131 102 96 112 125 86 119 251 251 73 290 66 304 14 354 7 227 77 15 13 119 298 314 14 31 133 226 240 158 227 291 181 241 257 305 172 214 182 159 216 225 217 156 172 206 266 117 84 80 74 72 101 106 105 325 23 276 168 159 213 283 295 161 350 207 227 229 231 241 239 238 241 249 254 254 260
228 218 198 185 198 220 192 139 228 222 165 130 86 108 92 152 49 28 335 244 31 290 99 252 103 229 55 133 277 339 301 322 117 333 27 145 326 23 320 160 173 243 265 321 264 243 231 338 146 130 205 219 180 204 173 198 187 101 80 76 9 36 26 26 68 93 30 266 259 164 189 164 276 297 171 142 195 210 216 253 262 264 262 263 261 257 257 253
230 221 199 168 188 191 129 243 245 218 148 90 137 123 135 44 136 122 239 217 10 229 44 354 191 35 107 145 245 317 192 358 322 101 129 360 360 39 347 357 42 39 19 313 278 269 250 90 178 249 89 81 101 92 33 46 128 137 178 127 23 328 12 33 344 42 193 268 219 189 176 180 223 284 299 219 258 276 208 209 229 235 245 248 255 258 255 251
233 224 196 175 192 143 180 248 257 126 128 113 59 37 51 4 1 213 227 349 288 259 148 231 4 117 181 353 90 218 185 332 212 162 184 185 151 156 208 190 152 179 301 230 262 32 260 223 207 59 209 156 153 125 316 16 33 114 100 82 221 264 28 317 33 306 199 236 248 211 169 9 240 228 220 288 265 245 208 220 226 226 236 245 253 257 256 257
267 230 201 194 188 200 235 114 112 114 95 81 75 70 95 130 238 229 257 10 264 148 277 125 209 167 167 93 269 240 103 208 242 219 117 348 152 255 281 209 197 159 248 254 257 350 275 304 177 222 52 218 136 188 194 321 213 129 166 166 127 249 241 251 268 252 302 288 253 162 177 244 273 304 214 248 253 228 204 217 229 229 224 233 244 260 275 293
323 270 215 195 197 202 171 138 145 129 106 71 90 56 59 187 239 44 197 213 240 12 107 95 51 63 134 196 240 156 258 235 148 227 164 213 129 247 278 249 172 268 154 313 275 188 302 295 228 136 236 174 182 200 201 191 160 199 110 158 193 174 154 196 215 243 238 247 307 279 134 233 71 248 220 215 255 329 233 226 229 250 284 283 293 300 287 277
314 278 232 200 209 211 171 157 146 125 100 95 84 141 172 234 255 206 224 275 288 321 289 20 36 100 290 304 284 239 204 298 163 107 189 139 233 192 192 202 217 123 109 254 239 84 219 241 273 187 319 152 181 220 158 104 96 212 162 61 41 227 148 221 217 228 267 335 324 215 216 208 234 259 294 254 267 263 261 299 319 281 263 274 281 270 264 270
320 264 209 218 180 198 163 157 142 130 126 128 110 182 221 205 223 161 237 163 316 348 316 328 109 233 243 285 290 230 254 196 271 152 254 190 208 205 210 185 181 189 169 198 175 237 296 265 299 217 45 181 204 159 200 149 218 224 111 190 215 149 162 251 318 255 96 341 255 197 284 273 305 274 241 254 249 264 286 276 279 277 256 250 253 264 267 273
312 267 227 198 206 174 165 153 149 134 141 154 171 230 221 279 191 164 266 190 190 83 42 341 276 198 273 249 285 316 297 350 246 149 259 148 296 205 209 249 172 196 205 188 282 204 241 259 274 150 243 267 62 297 356 325 136 108 188 230 77 112 117 159 213 337 231 243 265 273 255 273 360 283 348 23 49 274 271 259 236 244 277 292 268 265 268 289
306 240 246 231 209 169 155 157 139 144 146 168 215 233 114 212 253 188 203 15 300 63 122 152 275 40 261 353 298 38 301 169 299 111 278 190 272 136 109 220 220 197 222 238 242 284 215 262 254 235 203 345 348 26 320 346 17 146 193 241 143 238 248 246 95 228 234 239 256 238 275 270 233 256 284 293 297 296 281 262 282 282 267 254 265 271 277 285
276 291 290 239 208 159 151 154 156 146 155 199 218 244 188 222 142 187 214 128 176 117 223 217 211 263 212 249 251 248 137 250 71 299 24 258 222 240 200 256 38 39 9 133 288 286 15 276 268 33 78 328 360 105 226 204 337 115 355 308 66 99 203 158 200 185 188 250 246 257 250 267 231 205 210 229 246 241 256 313 277 270 263 266 268 272 275 279
236 240 241 26 115 138 146 149 153 166 178 215 217 228 126 201 237 234 214 153 224 156 234 217 207 250 243 243 177 259 269 207 250 246 164 277 271 341 16 8 146 303 8 72 201 10 283 248 264 281 328 308 253 189 230 164 194 221 229 270 301 227 230 118 311 166 211 243 232 259 251 254 272 189 216 233 223 231 219 295 315 314 308 293 282 277 286 281
224 240 261 67 124 132 133 134 159 192 214 295 254 240 209 239 199 259 220 211 234 303 200 189 175 212 186 358 274 167 228 205 165 192 201 274 201 274 195 170 177 356 47 65 102 329 335 286 261 300 286 236 241 179 197 215 204 199 192 217 212 213 258 253 252 174 203 222 242 244 253 251 280 186 181 201 227 211 258 245 278 283 291 295 285 284 270 278
198 227 233 131 138 139 136 172 210 195 207 209 225 188 235 180 236 209 211 256 208 213 38 182 237 214 194 228 218 199 181 211 216 212 207 212 216 203 253 170 153 122 34 324 299 295 127 240 296 258 245 258 274 279 211 241 243 261 204 242 217 232 231 231 251 224 274 236 282 251 278 245 273 286 266 269 273 254 294 286 281 273 266 273 278 274 279 269
211 228 10 153 164 155 161 205 203 215 227 257 10 307 70 293 203 221 205 191 211 177 226 212 203 212 231 233 211 234 200 243 174 225 182 220 221 212 219 234 238 209 138 251 70 230 137 199 220 262 277 281 278 283 278 166 201 284 256 225 182 218 211 231 243 237 246 318 303 280 258 271 254 268 283 280 271 285 281 268 273 278 276 271 270 268 266 269
299 293 315 216 187 185 179 210 217 214 224 243 241 251 223 213 203 249 214 200 181 196 201 205 243 217 244 208 217 229 170 267 193 227 240 212 247 209 235 233 235 240 175 199 198 187 229 215 155 288 301 283 292 332 280 276 121 198 202 230 214 251 289 272 349 26 260 229 240 250 257 257 245 262 276 285 284 278 275 270 264 272 280 276 263 262 260 263
314 275 240 236 207 189 217 204 227 214 218 231 225 229 241 248 211 229 229 222 201 202 183 245 209 177 226 197 227 226 203 214 269 219 216 201 243 224 245 226 233 241 229 219 195 172 224 190 157 215 236 257 265 239 231 241 233 216 276 270 254 217 242 266 261 240 251 229 232 241 259 251 258 259 269 273 277 278 273 270 269 250 257 269 260 255 256 254
226 260 252 189 210 230 251 261 259 226 208 226 236 230 231 240 248 237 196 248 215 244 232 263 332 312 225 204 232 225 242 230 226 246 200 264 254 275 207 218 219 228 235 224 183 139 262 197 208 225 229 238 239 252 205 139 143 221 228 221 231 233 236 237 246 251 250 254 243 236 240 255 254 260 262 265 268 274 278 279 275 280 259 243 248 255 254 252
295 262 241 252 244 228 247 212 228 211 228 160 239 164 229 234 245 277 171 258 215 219 231 222 229 233 219 222 229 248 233 249 234 244 237 240 221 239 301 229 246 233 233 234 171 122 145 218 219 231 234 237 246 248 252 234 246 239 244 240 236 235 233 237 237 250 253 266 258 236 242 248 251 253 259 263 265 268 271 278 287 279 256 245 243 245 255 263
213 251 343 251 280 218 224 239 241 228 238 226 239 237 256 249 217 232 270 238 228 188 198 324 234 223 239 234 235 248 214 240 228 240 242 252 269 289 287 239 234 273 270 258 179 192 182 242 223 235 244 240 240 246 249 256 249 248 241 245 245 243 246 244 246 245 249 246 257 253 247 248 246 240 249 256 259 259 265 278 282 283 283 266 260 262 260 267
255 314 285 296 180 255 288 351 2 332 309 228 316 257 251 240 239 224 186 308 292 237 205 244 213 234 256 337 335 288 287 263 262 319 41 2 356 325 307 326 308 260 246 204 202 190 181 239 246 240 252 243 246 241 245 248 253 251 245 244 245 249 250 249 249 245 243 249 251 255 253 252 248 246 239 249 255 263 271 275 279 284 281 276 270 267 267 267
294 256 293 6 227 286 294 339 315 299 311 264 266 209 230 238 265 264 26 160 246 276 177 245 323 21 311 72 74 308 264 107 149 275 328 14 331 354 337 275 311 341 356 294 279 280 216 228 195 243 251 248 249 246 242 238 242 247 248 246 242 243 247 248 254 255 256 259 256 253 251 255 254 257 255 257 264 267 268 270 271 272 276 280 287 302 320 299
259 42 297 318 303 254 341 317 227 276 278 211 233 224 227 213 242 54 276 328 245 250 326 353 32 346 12 310 220 260 95 59 292 242 256 275 282 314 333 289 332 312 308 297 251 322 208 272 251 257 260 252 234 245 247 246 244 242 246 245 247 245 247 243 248 244 239 247 251 257 258 258 255 249 254 255 256 256 260 263 265 268 279 304 337 12 22 17
44 295 182 218 253 274 288 290 341 337 248 241 256 319 304 274 36 352 332 234 208 100 95 41 5 357 308 328 304 333 358 275 239 253 228 222 222 246 228 234 242 254 289 284 280 272 226 307 287 288 268 262 238 236 244 247 255 251 242 239 236 238 239 244 240 249 250 256 257 256 256 249 257 266 269 267 269 271 272 276 292 329 7 38 33 20 19 11